Location: McCall
(45.0000°N, 116.0000°W)
Time: 02:06:47
(UTC-06:00)

Amateur Radio Satellites - All Passes

Search period start: 17 April 2014 01:36
Search period end: 18 April 2014 01:36
Location: McCall, 45.0000°N, 116.0000°W

Satellite Date Start Highest point End Downlink Frequencies (MHz)
Time Altitude Azimuth
Oscar 19 17 Apr 02:01:50 02:03:51 12° 87° (E) 02:05:51 437.125 CW, 437.150 USB
Oscar 16 17 Apr 02:08:45 02:11:48 16° 89° (E) 02:14:50 437.025 USB, Beacon 2401.1428
UOSAT-12 17 Apr 02:16:36 02:19:45 17° 33° (NNE) 02:22:55 437.025 FM, 437.400 FM
PCSat 17 Apr 02:19:05 02:24:26 66° 117° (ESE) 02:29:49 145.825 MHz
OPAL 17 Apr 02:29:31 02:33:51 30° 62° (ENE) 02:38:15 ?
Uribyol 2 17 Apr 02:38:58 02:41:57 15° 89° (E) 02:44:55 436.500 FM
SO-50 17 Apr 02:58:17 03:02:10 27° 246° (WSW) 03:06:05 436.795 FM
AO-27 17 Apr 03:16:32 03:21:10 32° 96° (E) 03:25:46 436.795 MHz FM
Sapphire 17 Apr 03:17:24 03:22:39 50° 308° (NW) 03:27:57 437.095 MHz 1200 baud AX-25 AFSK
KITSAT 1 17 Apr 03:24:04 03:30:38 28° 106° (ESE) 03:37:13 435.175 FM
ITAMSAT 1 17 Apr 03:27:50 03:32:41 40° 98° (E) 03:37:31 435.822 SSB
Oscar 19 17 Apr 03:38:40 03:43:54 89° 285° (WNW) 03:49:07 437.125 CW, 437.150 USB
TMSAT-1 17 Apr 03:44:54 03:47:32 14° 88° (E) 03:50:10 436.925 FM
Oscar 16 17 Apr 03:46:30 03:51:42 72° 287° (WNW) 03:56:52 437.025 USB, Beacon 2401.1428
UOSAT-12 17 Apr 03:55:54 04:00:40 81° 54° (NE) 04:05:22 437.025 FM, 437.400 FM
AO-Echo 17 Apr 04:02:18 04:07:08 67° 102° (ESE) 04:11:49 ?
PCSat 17 Apr 04:03:54 04:08:19 25° 318° (NW) 04:12:46 145.825 MHz
OPAL 17 Apr 04:07:58 04:12:37 38° 260° (W) 04:17:21 ?
Uribyol 2 17 Apr 04:16:49 04:21:59 73° 287° (WNW) 04:27:08 436.500 FM
Gurwin Techsat 1B 17 Apr 04:32:54 04:38:05 51° 100° (E) 04:43:14 435.225 FM
AO-27 17 Apr 04:56:01 05:00:42 35° 294° (WNW) 05:05:21 436.795 MHz FM
Sapphire 17 Apr 05:04:56 05:07:26 13° 330° (NNW) 05:09:56 437.095 MHz 1200 baud AX-25 AFSK
ITAMSAT 1 17 Apr 05:07:38 05:12:02 29° 296° (WNW) 05:16:26 435.822 SSB
KITSAT 1 17 Apr 05:17:14 05:25:20 73° 306° (NW) 05:33:30 435.175 FM
Oscar 19 17 Apr 05:19:52 05:22:30 14° 303° (WNW) 05:25:07 437.125 CW, 437.150 USB
TMSAT-1 17 Apr 05:22:47 05:28:07 82° 286° (WNW) 05:33:24 436.925 FM
Oscar 16 17 Apr 05:28:31 05:30:08 11° 305° (NW) 05:31:45 437.025 USB, Beacon 2401.1428
UOSAT-12 17 Apr 05:37:50 05:40:10 14° 252° (WSW) 05:42:30 437.025 FM, 437.400 FM
JAS-1B 17 Apr 05:38:56 05:44:36 62° 102° (ESE) 05:50:19 435.800 - 435.900 CW/SSB
AO-Echo 17 Apr 05:42:25 05:45:22 16° 301° (WNW) 05:48:16 ?
AO-7 17 Apr 05:52:57 06:00:55 47° 100° (E) 06:08:51 29.400 - 29.500 MHz
Uosat F 17 Apr 05:56:49 06:01:51 80° 104° (ESE) 06:06:51 435.120 FM
Uribyol 2 17 Apr 05:58:58 06:00:33 11° 306° (NW) 06:02:09 436.500 FM
Gurwin Techsat 1B 17 Apr 06:13:33 06:17:44 24° 298° (WNW) 06:21:54 435.225 FM
STRAND 1 17 Apr 06:41:46 06:46:19 33° 66° (ENE) 06:50:52 ?
TMSAT-1 17 Apr 07:04:50 07:07:12 13° 304° (NW) 07:09:35 436.925 FM
Hamsat 17 Apr 07:11:12 07:14:35 22° 93° (E) 07:17:59 145.90 MHz
KITSAT 1 17 Apr 07:15:45 07:22:15 25° 331° (NNW) 07:28:46 435.175 FM
RS-15 17 Apr 07:29:05 07:39:08 39° 108° (ESE) 07:48:54 29.354 - 29.394 USB, Beacon 29.352 USB
JAS-1B 17 Apr 07:30:45 07:34:50 20° 302° (WNW) 07:38:52 435.800 - 435.900 CW/SSB
MaSat-1 17 Apr 07:36:09 07:38:15 19° 56° (NE) 07:40:33 437.345 MHz
Uosat F 17 Apr 07:37:12 07:40:00 15° 302° (WNW) 07:42:47 435.120 FM
AO-7 17 Apr 07:45:56 07:53:39 45° 300° (WNW) 08:01:23 29.400 - 29.500 MHz
JAS-2 17 Apr 08:19:21 08:24:12 35° 97° (E) 08:29:24 435.800 - 435.900 CW/SSB, 435.910 FM
STRAND 1 17 Apr 08:20:52 08:25:29 33° 264° (W) 08:30:06 ?
Sapphire 17 Apr 08:39:05 08:40:04 10° 25° (NNE) 08:41:02 437.095 MHz 1200 baud AX-25 AFSK
SO-67 17 Apr 08:41:47 08:45:05 37° 98° (E) 08:48:22 435.3500 MHz FM
Hamsat 17 Apr 08:46:41 08:50:42 38° 290° (WNW) 08:54:43 145.90 MHz
MaSat-1 17 Apr 09:14:17 09:16:39 22° 247° (WSW) 09:19:19 437.345 MHz
HO-68 17 Apr 09:15:58 09:18:23 12° 85° (E) 09:20:48 435.675 MHz FM
KITSAT 1 17 Apr 09:16:19 09:21:05 16° 1° (N) 09:25:50 435.175 FM
PCSat 17 Apr 09:22:37 09:26:16 18° 36° (NE) 09:29:55 145.825 MHz
RS-15 17 Apr 09:39:40 09:50:52 68° 311° (NW) 10:01:49 29.354 - 29.394 USB, Beacon 29.352 USB
AO-7 17 Apr 09:41:29 09:44:21 12° 323° (NW) 09:47:12 29.400 - 29.500 MHz
JAS-2 17 Apr 10:04:38 10:09:19 33° 293° (WNW) 10:14:18 435.800 - 435.900 CW/SSB, 435.910 FM
SO-67 17 Apr 10:15:54 10:17:57 15° 295° (WNW) 10:20:01 435.3500 MHz FM
Oscar 11 17 Apr 10:16:44 10:17:36 11° 88° (E) 10:18:28 145.825 FM, Beacon 2401.500 USB
Sapphire 17 Apr 10:20:10 10:25:10 36° 48° (NE) 10:30:09 437.095 MHz 1200 baud AX-25 AFSK
HO-68 17 Apr 11:00:12 11:07:23 68° 104° (ESE) 11:14:32 435.675 MHz FM
PCSat 17 Apr 11:05:08 11:10:36 79° 58° (ENE) 11:16:01 145.825 MHz
KITSAT 1 17 Apr 11:13:12 11:19:51 27° 31° (NNE) 11:26:26 435.175 FM
FUNcube-1 17 Apr 11:33:35 11:36:58 23° 94° (E) 11:40:22 145.950 - 145.970 MHz USB
Saudisat 1A 17 Apr 11:46:30 11:49:18 16° 111° (ESE) 11:52:06 436.775 MHz
Oscar 11 17 Apr 11:49:59 11:54:21 79° 285° (WNW) 11:58:42 145.825 FM, Beacon 2401.500 USB
RS-15 17 Apr 11:56:16 12:05:41 31° 341° (NNW) 12:15:02 29.354 - 29.394 USB, Beacon 29.352 USB
Sapphire 17 Apr 12:03:37 12:08:38 39° 247° (WSW) 12:13:38 437.095 MHz 1200 baud AX-25 AFSK
HO-68 17 Apr 12:48:43 12:54:32 28° 303° (WNW) 13:00:22 435.675 MHz FM
PCSat 17 Apr 12:50:06 12:53:19 16° 256° (WSW) 12:56:32 145.825 MHz
KITSAT 1 17 Apr 13:08:27 13:16:37 78° 55° (NE) 13:24:41 435.175 FM
FUNcube-1 17 Apr 13:09:38 13:13:28 34° 290° (WNW) 13:17:22 145.950 - 145.970 MHz USB
ITAMSAT 1 17 Apr 13:12:36 13:14:18 12° 55° (NE) 13:16:00 435.822 SSB
Oscar 19 17 Apr 13:19:50 13:23:48 23° 62° (ENE) 13:27:47 437.125 CW, 437.150 USB
Saudisat 1A 17 Apr 13:23:59 13:28:26 64° 308° (NW) 13:32:53 436.775 MHz
Oscar 16 17 Apr 13:27:15 13:31:35 28° 64° (ENE) 13:35:56 437.025 USB, Beacon 2401.1428
AO-Echo 17 Apr 13:40:40 13:43:48 16° 59° (ENE) 13:46:54 ?
Uribyol 2 17 Apr 13:58:20 14:02:44 29° 64° (ENE) 14:07:08 436.500 FM
RS-15 17 Apr 14:13:13 14:22:27 30° 17° (NNE) 14:31:43 29.354 - 29.394 USB, Beacon 29.352 USB
Gurwin Techsat 1B 17 Apr 14:19:06 14:22:04 15° 57° (ENE) 14:25:02 435.225 FM
AO-27 17 Apr 14:36:31 14:41:37 60° 71° (ENE) 14:46:44 436.795 MHz FM
JAS-1B 17 Apr 14:39:02 14:42:50 15° 54° (NE) 14:46:22 435.800 - 435.900 CW/SSB
Oscar 10/S400 17 Apr 14:43:49 16:02:59 23° 264° (W) 18:40:20 145.825 - 145.975 CW/USB, Beacon 145.810 USB
ITAMSAT 1 17 Apr 14:47:44 14:52:54 74° 73° (ENE) 14:58:05 435.822 SSB
Oscar 19 17 Apr 14:57:49 15:02:48 52° 260° (W) 15:07:51 437.125 CW, 437.150 USB
KITSAT 1 17 Apr 15:04:55 15:11:11 26° 255° (WSW) 15:17:26 435.175 FM
AO-7 17 Apr 15:05:08 15:10:35 20° 46° (NE) 15:16:03 29.400 - 29.500 MHz
Oscar 16 17 Apr 15:05:57 15:10:46 41° 262° (W) 15:15:38 437.025 USB, Beacon 2401.1428
Saudisat 1A 17 Apr 15:06:33 15:08:55 14° 329° (NNW) 15:11:17 436.775 MHz
TMSAT-1 17 Apr 15:06:57 15:11:20 27° 64° (ENE) 15:15:44 436.925 FM
AO-Echo 17 Apr 15:16:42 15:21:58 79° 257° (WSW) 15:27:09 ?
Uosat F 17 Apr 15:35:16 15:38:47 20° 61° (ENE) 15:42:18 435.120 FM
Uribyol 2 17 Apr 15:37:15 15:42:04 39° 262° (W) 15:46:55 436.500 FM
Gurwin Techsat 1B 17 Apr 15:56:00 16:01:19 86° 256° (WSW) 16:06:40 435.225 FM
OPAL 17 Apr 16:15:19 16:20:22 47° 101° (ESE) 16:25:22 ?
AO-27 17 Apr 16:17:56 16:21:32 19° 269° (W) 16:25:09 436.795 MHz FM
JAS-1B 17 Apr 16:24:27 16:32:34 69° 71° (ENE) 16:39:20 435.800 - 435.900 CW/SSB
RS-15 17 Apr 16:26:35 16:37:28 64° 47° (NE) 16:48:31 29.354 - 29.394 USB, Beacon 29.352 USB
ITAMSAT 1 17 Apr 16:30:02 16:32:58 15° 271° (W) 16:35:54 435.822 SSB
TMSAT-1 17 Apr 16:46:00 16:51:02 44° 262° (W) 16:56:07 436.925 FM
AO-7 17 Apr 16:53:49 17:02:03 73° 67° (ENE) 17:10:19 29.400 - 29.500 MHz
ISS 17 Apr 16:56:23 16:59:19 28° 139° (SE) 17:02:15 145.800 FM
AO-Echo 17 Apr 17:01:08 17:01:30 10° 274° (W) 17:01:52 ?
Uosat F 17 Apr 17:12:09 17:17:07 61° 258° (WSW) 17:22:07 435.120 FM
SO-50 17 Apr 17:14:25 17:18:50 63° 122° (ESE) 17:23:19 436.795 FM
Gurwin Techsat 1B 17 Apr 17:40:18 17:42:04 12° 273° (W) 17:43:49 435.225 FM
OPAL 17 Apr 17:54:43 17:58:59 26° 299° (WNW) 18:03:16 ?
Hamsat 17 Apr 18:07:07 18:10:14 21° 65° (ENE) 18:13:23 145.90 MHz
UOSAT-12 17 Apr 18:11:06 18:13:40 15° 109° (ESE) 18:16:15 437.025 FM, 437.400 FM
JAS-1B 17 Apr 18:17:04 18:23:30 25° 266° (W) 18:29:12 435.800 - 435.900 CW/SSB
ISS 17 Apr 18:32:39 18:35:56 51° 337° (NNW) 18:39:14 145.800 FM
JAS-2 17 Apr 18:35:30 18:39:27 20° 61° (ENE) 18:43:12 435.800 - 435.900 CW/SSB, 435.910 FM
RS-15 17 Apr 18:39:25 18:49:21 42° 250° (WSW) 18:59:33 29.354 - 29.394 USB, Beacon 29.352 USB
AO-7 17 Apr 18:48:53 18:55:33 27° 267° (W) 19:02:16 29.400 - 29.500 MHz
SO-50 17 Apr 18:56:18 18:59:49 22° 322° (NW) 19:03:22 436.795 FM
SO-67 17 Apr 19:18:11 19:20:42 19° 67° (ENE) 19:23:13 435.3500 MHz FM
Hamsat 17 Apr 19:42:02 19:45:59 39° 263° (W) 19:49:59 145.90 MHz
HO-68 17 Apr 19:47:36 19:51:07 15° 47° (NE) 19:54:38 435.675 MHz FM
UOSAT-12 17 Apr 19:48:39 19:53:13 73° 307° (NW) 19:57:54 437.025 FM, 437.400 FM
Saudisat 1A 17 Apr 20:09:58 20:13:47 27° 42° (NE) 20:17:34 436.775 MHz
ISS 17 Apr 20:10:19 20:13:12 25° 357° (N) 20:16:05 145.800 FM
JAS-2 17 Apr 20:18:17 20:24:11 66° 258° (WSW) 20:29:32 435.800 - 435.900 CW/SSB, 435.910 FM
STRAND 1 17 Apr 20:28:48 20:33:54 71° 103° (ESE) 20:38:59 ?
SO-67 17 Apr 20:50:37 20:53:41 28° 264° (W) 20:56:47 435.3500 MHz FM
Oscar 11 17 Apr 21:13:51 21:15:32 12° 60° (ENE) 21:17:13 145.825 FM, Beacon 2401.500 USB
HO-68 17 Apr 21:30:27 21:37:27 62° 68° (ENE) 21:44:29 435.675 MHz FM
UOSAT-12 17 Apr 21:31:21 21:34:13 16° 328° (NNW) 21:37:07 437.025 FM, 437.400 FM
ISS 17 Apr 21:47:25 21:50:34 36° 17° (NNE) 21:53:42 145.800 FM
Saudisat 1A 17 Apr 21:49:22 21:53:34 44° 241° (WSW) 21:57:42 436.775 MHz
STRAND 1 17 Apr 22:09:17 22:12:32 17° 301° (WNW) 22:15:47 ?
FUNcube-1 17 Apr 22:32:31 22:35:54 24° 67° (ENE) 22:39:15 145.950 - 145.970 MHz USB
Oscar 11 17 Apr 22:46:48 22:51:07 79° 257° (WSW) 22:55:27 145.825 FM, Beacon 2401.500 USB
MaSat-1 17 Apr 23:19:19 23:22:14 76° 298° (WNW) 23:24:50 437.345 MHz
HO-68 17 Apr 23:19:41 23:25:36 28° 266° (W) 23:31:34 435.675 MHz FM
ISS 17 Apr 23:24:08 23:27:26 52° 216° (SW) 23:30:42 145.800 FM
SO-50 18 Apr 00:04:26 00:07:44 19° 36° (NE) 00:11:05 436.795 FM
FUNcube-1 18 Apr 00:08:24 00:12:12 32° 263° (W) 00:15:59 145.950 - 145.970 MHz USB
Sapphire 18 Apr 01:05:27 01:09:17 20° 106° (ESE) 01:13:08 437.095 MHz 1200 baud AX-25 AFSK
